Location: Grossmotten
(48.5500°N, 15.3833°E)
Time: 16:46:48
(UTC+00:00)

IDEFIX/ARIANE 42P - Pass Details

Date: 15 November 2019
Orbit: 784 x 804 km, 98.3° (Epoch: 09 December)

Event Time Altitude Azimuth Distance (km) Brightness Sun altitude
Rises 03:20:14 0° 10° (N) 3,294 5.9 -27.3°
Reaches altitude 10° 03:22:37 10° 6° (N) 2,359 5.1 -26.9°
Enters shadow 03:25:13 29° 353° (N) 1,423 3.8 -26.5°
